• în Republica Moldova
  • Lista ţărilor
  • Pe 7 zile
  • Temperatura apei
  • Hartă satelitară
  • Meteo pe hartă
  • Widget-uri
  • user-avatar
    Intrare

    Meteo pe oră la Kaprun

    Astăzi, 19 Februarie, Duminică

    Timp Temperatura Precipitaţii Vânt Presiune Umiditate
    00:00 -17°C° 0 mm 1 m/s 592 mmHg 91%
    01:00 -18°C° 0 mm 1 m/s 591 mmHg 89%
    02:00 -17°C° 0 mm 1 m/s 591 mmHg 86%
    03:00 -17°C° 0 mm 1 m/s 591 mmHg 82%
    04:00 -17°C° 0 mm 1 m/s 591 mmHg 79%
    05:00 -17°C° 0 mm 1 m/s 591 mmHg 78%
    06:00 -17°C° 0 mm 1 m/s 591 mmHg 77%
    07:00 -17°C° 0 mm 2 m/s 592 mmHg 72%
    08:00 -12°C° 0 mm 1 m/s 594 mmHg 76%
    09:00 -9°C° 0 mm 1 m/s 596 mmHg 79%
    10:00 -4°C° 0 mm 1 m/s 597 mmHg 82%
    11:00 -3°C° 0 mm 1 m/s 597 mmHg 83%
    12:00 -2°C° 0 mm 1 m/s 598 mmHg 84%
    13:00 -1°C° 0 mm 1 m/s 598 mmHg 85%
    14:00 -2°C° 0 mm 1 m/s 597 mmHg 87%
    15:00 -2°C° 0 mm 1 m/s 597 mmHg 89%
    16:00 -2°C° 0 mm 1 m/s 597 mmHg 91%
    17:00 -6°C° 0 mm 1 m/s 595 mmHg 89%
    18:00 -9°C° 0 mm 1 m/s 594 mmHg 87%
    19:00 -13°C° 0 mm 2 m/s 593 mmHg 85%
    20:00 -13°C° 0 mm 2 m/s 593 mmHg 84%
    21:00 -12°C° 0 mm 2 m/s 594 mmHg 84%
    22:00 -12°C° 0 mm 2 m/s 594 mmHg 83%
    23:00 -12°C° 0 mm 2 m/s 595 mmHg 84%

    Mâine, 20 Februarie, Luni

    Timp Temperatura Precipitaţii Vânt Presiune Umiditate
    00:00 -12°C° 0 mm 2 m/s 595 mmHg 86%
    01:00 -10°C° 0 mm 2 m/s 595 mmHg 87%
    02:00 -10°C° 0,1 mm 2 m/s 595 mmHg 87%
    03:00 -10°C° 0,1 mm 2 m/s 595 mmHg 88%
    04:00 -10°C° 0,1 mm 2 m/s 595 mmHg 89%
    05:00 -10°C° 0,1 mm 2 m/s 595 mmHg 89%
    06:00 -10°C° 0,1 mm 2 m/s 595 mmHg 90%
    07:00 -10°C° 0,1 mm 2 m/s 595 mmHg 91%
    08:00 -8°C° 0,1 mm 2 m/s 596 mmHg 91%
    09:00 -7°C° 0,1 mm 2 m/s 596 mmHg 90%
    10:00 -4°C° 0,1 mm 1 m/s 597 mmHg 90%
    11:00 -3°C° 0 mm 1 m/s 597 mmHg 89%
    12:00 -2°C° 0 mm 1 m/s 597 mmHg 89%
    13:00 -1°C° 0 mm 1 m/s 597 mmHg 88%
    14:00 -1°C° 0 mm 1 m/s 597 mmHg 89%
    15:00 -2°C° 0 mm 1 m/s 597 mmHg 91%
    16:00 -2°C° 0 mm 1 m/s 596 mmHg 92%
    17:00 -6°C° 0 mm 1 m/s 594 mmHg 93%
    18:00 -9°C° 0 mm 1 m/s 593 mmHg 94%
    19:00 -13°C° 0 mm 1 m/s 591 mmHg 94%
    20:00 -12°C° 0 mm 1 m/s 591 mmHg 92%
    21:00 -11°C° 0 mm 1 m/s 592 mmHg 90%
    22:00 -13°C° 0 mm 2 m/s 592 mmHg 88%
    23:00 -12°C° 0 mm 2 m/s 592 mmHg 86%

    Poimâine, 21 Februarie, Marţi

    Timp Temperatura Precipitaţii Vânt Presiune Umiditate
    00:00 -12°C° 0 mm 2 m/s 593 mmHg 84%
    01:00 -10°C° 0 mm 2 m/s 593 mmHg 82%
    02:00 -9°C° 0,2 mm 2 m/s 593 mmHg 84%
    03:00 -7°C° 0,2 mm 2 m/s 594 mmHg 85%
    04:00 -6°C° 0,2 mm 2 m/s 594 mmHg 87%
    05:00 -6°C° 0,6 mm 2 m/s 594 mmHg 89%
    06:00 -5°C° 0,6 mm 2 m/s 594 mmHg 92%
    07:00 -5°C° 0,6 mm 2 m/s 594 mmHg 94%
    08:00 -4°C° 0,4 mm 2 m/s 595 mmHg 95%
    09:00 -3°C° 0,4 mm 2 m/s 595 mmHg 95%
    10:00 -2°C° 0,4 mm 2 m/s 595 mmHg 96%
    11:00 -2°C° 0,4 mm 2 m/s 595 mmHg 96%
    12:00 -2°C° 0,4 mm 2 m/s 595 mmHg 96%
    13:00 -1°C° 0,4 mm 2 m/s 595 mmHg 96%
    14:00 -2°C° 0,5 mm 2 m/s 595 mmHg 97%
    15:00 -2°C° 0,5 mm 2 m/s 595 mmHg 97%
    16:00 -2°C° 0,5 mm 2 m/s 594 mmHg 98%
    17:00 -3°C° 0,4 mm 2 m/s 595 mmHg 97%
    18:00 -3°C° 0,4 mm 2 m/s 595 mmHg 97%
    19:00 -4°C° 0,4 mm 2 m/s 595 mmHg 96%
    20:00 -4°C° 0,2 mm 2 m/s 595 mmHg 96%
    21:00 -4°C° 0,2 mm 2 m/s 594 mmHg 95%
    22:00 -5°C° 0,2 mm 2 m/s 594 mmHg 95%
    23:00 -5°C° 0,2 mm 2 m/s 594 mmHg 94%

    22 Februarie, Miercuri

    Timp Temperatura Precipitaţii Vânt Presiune Umiditate
    00:00 -6°C° 0,2 mm 2 m/s 593 mmHg 94%
    01:00 -4°C° 0,2 mm 1 m/s 593 mmHg 94%
    02:00 -4°C° 0,2 mm 1 m/s 593 mmHg 94%
    03:00 -6°C° 0,2 mm 1 m/s 592 mmHg 93%
    04:00 -6°C° 0,2 mm 1 m/s 592 mmHg 93%
    05:00 -7°C° 0 mm 1 m/s 591 mmHg 93%
    06:00 -7°C° 0 mm 1 m/s 591 mmHg 94%
    07:00 -8°C° 0 mm 1 m/s 590 mmHg 94%
    08:00 -6°C° 0 mm 1 m/s 591 mmHg 94%
    09:00 -2°C° 0 mm 1 m/s 593 mmHg 94%
    10:00 0°C° 0 mm 1 m/s 594 mmHg 94%
    11:00 +1°C° 0 mm 1 m/s 594 mmHg 94%
    12:00 +1°C° 0 mm 1 m/s 594 mmHg 94%
    13:00 +2°C° 0 mm 1 m/s 593 mmHg 94%
    14:00 +1°C° 0 mm 1 m/s 593 mmHg 95%
    15:00 +1°C° 0 mm 1 m/s 593 mmHg 96%
    16:00 +1°C° 0 mm 1 m/s 592 mmHg 97%
    17:00 -1°C° 0 mm 1 m/s 592 mmHg 97%
    18:00 -3°C° 0 mm 1 m/s 591 mmHg 97%
    19:00 -4°C° 0 mm 1 m/s 590 mmHg 97%
    20:00 -6°C° 0 mm 1 m/s 590 mmHg 97%
    21:00 -7°C° 0 mm 1 m/s 590 mmHg 96%
    22:00 -7°C° 0 mm 1 m/s 590 mmHg 96%
    23:00 -7°C° 0 mm 1 m/s 590 mmHg 96%

    23 Februarie, Joi

    Timp Temperatura Precipitaţii Vânt Presiune Umiditate
    00:00 -6°C° 0 mm 1 m/s 590 mmHg 95%
    01:00 -6°C° 0 mm 1 m/s 590 mmHg 94%
    02:00 -6°C° 0,1 mm 1 m/s 590 mmHg 93%
    03:00 -6°C° 0,1 mm 2 m/s 590 mmHg 93%
    04:00 -6°C° 0,1 mm 2 m/s 590 mmHg 92%
    05:00 -6°C° 0,1 mm 2 m/s 591 mmHg 91%
    06:00 -6°C° 0,1 mm 2 m/s 591 mmHg 90%
    07:00 -6°C° 0,1 mm 2 m/s 591 mmHg 90%
    08:00 -3°C° 0,1 mm 1 m/s 592 mmHg 90%
    09:00 -1°C° 0,1 mm 1 m/s 592 mmHg 90%
    10:00 0°C° 0,1 mm 1 m/s 593 mmHg 90%
    11:00 +1°C° 0,1 mm 1 m/s 593 mmHg 89%
    12:00 +1°C° 0,1 mm 1 m/s 593 mmHg 88%
    13:00 +2°C° 0,1 mm 1 m/s 593 mmHg 88%
    14:00 +2°C° 0 mm 1 m/s 592 mmHg 90%
    15:00 +1°C° 0 mm 1 m/s 592 mmHg 92%
    16:00 +1°C° 0 mm 1 m/s 591 mmHg 94%
    17:00 0°C° 0 mm 1 m/s 591 mmHg 95%
    18:00 -3°C° 0 mm 2 m/s 590 mmHg 95%
    19:00 -4°C° 0 mm 2 m/s 590 mmHg 96%
    20:00 -4°C° 0,1 mm 2 m/s 589 mmHg 96%
    21:00 -4°C° 0,1 mm 2 m/s 589 mmHg 95%
    22:00 -4°C° 0,1 mm 2 m/s 589 mmHg 95%
    23:00 -4°C° 0,1 mm 2 m/s 588 mmHg 95%

    24 Februarie, Vineri

    Timp Temperatura Precipitaţii Vânt Presiune Umiditate
    00:00 -4°C° 0,1 mm 2 m/s 588 mmHg 95%
    01:00 -4°C° 0,1 mm 2 m/s 587 mmHg 95%
    02:00 -4°C° 0,4 mm 2 m/s 587 mmHg 95%
    03:00 -4°C° 0,4 mm 2 m/s 587 mmHg 95%
    04:00 -4°C° 0,4 mm 2 m/s 587 mmHg 95%
    05:00 -4°C° 0,8 mm 2 m/s 587 mmHg 95%
    06:00 -4°C° 0,8 mm 2 m/s 587 mmHg 95%
    07:00 -4°C° 0,8 mm 2 m/s 587 mmHg 96%
    08:00 -5°C° 1,6 mm 2 m/s 588 mmHg 96%
    09:00 -5°C° 1,6 mm 2 m/s 588 mmHg 96%
    10:00 -6°C° 1,6 mm 3 m/s 589 mmHg 96%
    11:00 -6°C° 0,9 mm 3 m/s 589 mmHg 95%
    12:00 -7°C° 0,9 mm 3 m/s 589 mmHg 94%
    13:00 -7°C° 0,9 mm 3 m/s 589 mmHg 94%
    14:00 -7°C° 0,7 mm 3 m/s 590 mmHg 93%
    15:00 -7°C° 0,7 mm 3 m/s 590 mmHg 93%
    16:00 -7°C° 0,7 mm 3 m/s 590 mmHg 93%
    17:00 -7°C° 0,5 mm 2 m/s 591 mmHg 94%
    18:00 -7°C° 0,5 mm 2 m/s 592 mmHg 95%
    19:00 -8°C° 0,5 mm 2 m/s 592 mmHg 96%
    20:00 -8°C° 0,3 mm 2 m/s 593 mmHg 96%
    21:00 -9°C° 0,3 mm 2 m/s 593 mmHg 95%
    22:00 -9°C° 0,3 mm 2 m/s 594 mmHg 95%
    23:00 -10°C° 0,1 mm 2 m/s 594 mmHg 95%
    Arată mai mult